Tracking 29892 objects as of 21-Nov-2024
HD Live streaming from Space Station
objects crossing your sky now

THORAD AGENA D DEB *

Track THORAD AGENA D DEB * now!
10-day predictions


NORAD ID: 6159
Int'l Code: 1970-025MY
Perigee: 1,266.6 km
Apogee: 1,356.2 km
Inclination: 101.2 °
Period: 111.7 minutes
Semi major axis: 7682 km
RCS: 0.0175 m2 (small)
Launch date: April 8, 1970
Source: United States (US)
Launch site: AIR FORCE WESTERN TEST RANGE (AFWTR)

Note: This is SATELLITE DEBRIS
Your satellite tracking list
Your tracking list is empty




NASA's NSSDC Master Catalog

Two Line Element Set (TLE):
1 06159U 70025MY  24322.32870453  .00001174  00000-0  46779-2 0  9998
2 06159 101.2214  89.8667 0058312 340.3996  47.9141 12.89317733581375
Source of the keplerian elements: AFSPC